Hereford, TX

7:28 PM CDT on June 22, 2017 (GMT -0500)
Hereford Municipal

Weather History for KHRX - December, 2013

Change the Weather History Date:

Tuesday, December 10, 2013

  Actual Average (KCVN) Record (KCVN)
Temperature  
Mean Temperature 28 °F -  
Max Temperature 53 °F 53 °F 74 °F (1939)
Min Temperature 4 °F 24 °F -4 °F (1978)
Degree Days  
Heating Degree Days 36    
Moisture  
Dew Point 5 °F    
Average Humidity 46    
Maximum Humidity 84    
Minimum Humidity 7    
Precipitation  
Precipitation 0.00 in - - ()
Sea Level Pressure  
Sea Level Pressure 30.19 in    
Wind  
Wind Speed 10 mph (SW)    
Max Wind Speed 31 mph    
Max Gust Speed 41 mph    
Visibility 10 miles    
Events      
Averages and records for this station are not official NWS values.
T = Trace of Precipitation, MM = Missing Value Source: NWS Daily Summary

Daily Weather History Graph

Daily Weather History Graph

Search for Another Location

Airport or City:

Trip Planner

Search our weather history database for the weather conditions in past years. The results will help you decide how hot, cold, wet, or windy it might be!

Date:

Astronomy

Dec. 10, 2013 Rise Set
Actual Time 7:46 AM CST 5:38 PM CST
Civil Twilight 7:18 AM CST 6:06 PM CST
Nautical Twilight 6:46 AM CST 6:37 PM CST
Astronomical Twilight 6:16 AM CST 7:08 PM CST
Moon 1:28 PM CST (12/10) 1:20 AM CST (12/10)
Length of Visible Light 10h 48m
Length of Day
9h 52m
Waxing Gibbous, 62% of the Moon is Illuminated
Dec 10
Waxing Gibbous
Dec 17
Full
Dec 25
Last Quarter
Jan 1
New
Jan 7
First Quarter

Hourly Weather History & Observations

Time (CST) Temp. Windchill Dew Point Humidity Pressure Visibility Wind Dir Wind Speed Gust Speed Precip Events Conditions
12:15 AM 12.2 °F 6.1 °F 6.4 °F 78% 30.29 in 10.0 mi South 3.5 mph - N/A   Clear
12:35 AM 10.6 °F 2.5 °F 5.0 °F 78% 30.29 in 10.0 mi SSW 4.6 mph - N/A   Clear
12:55 AM 14.4 °F 2.4 °F 9.3 °F 80% 30.28 in 10.0 mi SSW 9.2 mph - N/A   Clear
1:15 AM 14.0 °F 2.9 °F 9.3 °F 82% 30.28 in 10.0 mi SSW 8.1 mph - N/A   Clear
1:35 AM 13.5 °F 3.3 °F 8.8 °F 82% 30.29 in 10.0 mi SW 6.9 mph - N/A   Clear
1:55 AM 11.7 °F 5.5 °F 7.7 °F 84% 30.29 in 10.0 mi SW 3.5 mph - N/A   Clear
2:15 AM 10.6 °F 4.3 °F 6.3 °F 83% 30.29 in 10.0 mi West 3.5 mph - N/A   Clear
2:35 AM 6.8 °F -4.8 °F 2.3 °F 82% 30.29 in 10.0 mi West 6.9 mph - N/A   Clear
2:55 AM 7.9 °F -2.2 °F 3.7 °F 83% 30.29 in 10.0 mi WSW 5.8 mph - N/A   Clear
3:15 AM 8.8 °F -2.4 °F 3.7 °F 80% 30.29 in 10.0 mi SW 6.9 mph - N/A   Clear
3:35 AM 9.5 °F -0.3 °F 4.1 °F 79% 30.31 in 10.0 mi WSW 5.8 mph - N/A   Clear
3:55 AM 9.5 °F -1.5 °F 3.9 °F 78% 30.32 in 10.0 mi WSW 6.9 mph - N/A   Clear
4:35 AM 10.2 °F -0.6 °F 3.7 °F 75% 30.30 in 10.0 mi SW 6.9 mph - N/A   Clear
4:55 AM 7.9 °F -0.7 °F 1.9 °F 77% 30.29 in 10.0 mi SW 4.6 mph - N/A   Clear
5:15 AM 9.5 °F -0.3 °F 3.2 °F 76% 30.29 in 10.0 mi WSW 5.8 mph - N/A   Clear
5:35 AM 6.4 °F -3.9 °F -0.2 °F 74% 30.29 in 10.0 mi West 5.8 mph - N/A   Clear
5:55 AM 7.7 °F 1.0 °F 1.2 °F 75% 30.28 in 10.0 mi West 3.5 mph - N/A   Clear
6:15 AM 7.3 °F - 1.4 °F 77% 30.28 in 10.0 mi Calm Calm - N/A   Clear
6:35 AM 7.7 °F 1.0 °F 1.6 °F 76% 30.27 in 10.0 mi WNW 3.5 mph - N/A   Clear
6:55 AM 4.8 °F - -0.6 °F 78% 30.28 in 10.0 mi Calm Calm - N/A   Clear
7:15 AM 6.8 °F - 0.5 °F 75% 30.28 in 10.0 mi Calm Calm - N/A   Clear
7:35 AM 6.3 °F - 0.1 °F 76% 30.28 in 10.0 mi Calm Calm - N/A   Clear
7:55 AM 6.4 °F - -0.4 °F 74% 30.27 in 10.0 mi Calm Calm - N/A   Clear
8:15 AM 6.1 °F - 0.7 °F 78% 30.27 in 10.0 mi Calm Calm - N/A   Clear
8:35 AM 9.5 °F 1.2 °F 4.5 °F 80% 30.28 in 10.0 mi South 4.6 mph - N/A   Clear
8:55 AM 12.9 °F 3.8 °F 6.3 °F 75% 30.28 in 10.0 mi South 5.8 mph - N/A   Clear
9:15 AM 18.0 °F 6.9 °F 10.0 °F 71% 30.28 in 10.0 mi SSW 9.2 mph - N/A   Clear
9:35 AM 21.9 °F 11.7 °F 11.1 °F 63% 30.28 in 10.0 mi SSW 9.2 mph - N/A   Clear
9:55 AM 25.0 °F 17.1 °F 11.5 °F 57% 30.28 in 10.0 mi South 6.9 mph - N/A   Clear
10:15 AM 27.5 °F 18.6 °F 13.1 °F 55% 30.27 in 10.0 mi South 9.2 mph - N/A   Clear
10:35 AM 31.8 °F 23.3 °F 11.5 °F 43% 30.26 in 10.0 mi SSW 10.4 mph - N/A   Clear
10:55 AM 34.5 °F 26.2 °F 10.4 °F 37% 30.26 in 10.0 mi SSW 11.5 mph - N/A   Clear
11:15 AM 39.7 °F 33.7 °F 10.0 °F 30% 30.24 in 10.0 mi SSW 9.2 mph - N/A   Clear
11:35 AM 44.6 °F 39.2 °F 8.4 °F 23% 30.23 in 10.0 mi SSW 10.4 mph 17.3 mph N/A   Clear
11:55 AM 49.5 °F - 1.0 °F 14% 30.22 in 10.0 mi SSW 18.4 mph 24.2 mph N/A   Clear
12:15 PM 51.1 °F - -1.7 °F 11% 30.21 in 10.0 mi SSW 19.6 mph 26.5 mph N/A   Clear
12:35 PM 52.3 °F - -7.1 °F 8% 30.19 in 10.0 mi SSW 24.2 mph 31.1 mph N/A   Clear
12:55 PM 53.2 °F - -9.4 °F 7% 30.17 in 10.0 mi SSW 27.6 mph 36.8 mph N/A   Clear
1:15 PM 52.7 °F - -10.3 °F 7% 30.16 in 10.0 mi SSW 31.1 mph 41.4 mph N/A   Clear
1:35 PM 52.2 °F - -7.1 °F 9% 30.14 in 10.0 mi SSW 27.6 mph 38.0 mph N/A   Clear
1:55 PM 52.0 °F - -4.2 °F 10% 30.13 in 10.0 mi SSW 25.3 mph 33.4 mph N/A   Clear
2:15 PM 52.9 °F - -4.2 °F 9% 30.13 in 10.0 mi SW 24.2 mph - N/A   Clear
2:35 PM 52.9 °F - -4.4 °F 9% 30.12 in 10.0 mi SW 24.2 mph 31.1 mph N/A   Clear
2:55 PM 53.6 °F - -6.7 °F 8% 30.12 in 10.0 mi SW 26.5 mph 35.7 mph N/A   Clear
3:15 PM 53.6 °F - -7.2 °F 8% 30.11 in 10.0 mi SW 23.0 mph 32.2 mph N/A   Clear
3:35 PM 52.7 °F - -4.4 °F 9% 30.10 in 10.0 mi SW 21.9 mph 34.5 mph N/A   Clear
3:55 PM 52.0 °F - -4.4 °F 10% 30.10 in 10.0 mi SW 26.5 mph 32.2 mph N/A   Clear
4:15 PM 50.5 °F - -4.9 °F 10% 30.09 in 10.0 mi SW 23.0 mph 28.8 mph N/A   Clear
4:35 PM 50.0 °F - -4.2 °F 11% 30.09 in 10.0 mi SW 25.3 mph 32.2 mph N/A   Clear
4:55 PM 48.4 °F - -3.8 °F 11% 30.08 in 10.0 mi SSW 24.2 mph 29.9 mph N/A   Clear
5:15 PM 45.7 °F 38.0 °F -3.5 °F 13% 30.09 in 10.0 mi SSW 19.6 mph 26.5 mph N/A   Clear
5:35 PM 44.2 °F 36.7 °F -3.1 °F 14% 30.09 in 10.0 mi SW 17.3 mph 24.2 mph N/A   Clear
5:55 PM 42.8 °F 35.1 °F -1.1 °F 16% 30.09 in 10.0 mi SW 16.1 mph 20.7 mph N/A   Clear
6:15 PM 41.2 °F 32.7 °F 2.1 °F 20% 30.09 in 10.0 mi SSW 17.3 mph - N/A   Clear
6:35 PM 40.5 °F 32.8 °F 3.7 °F 22% 30.09 in 10.0 mi SW 13.8 mph - N/A   Clear
6:55 PM 40.6 °F 31.7 °F 5.7 °F 24% 30.08 in 10.0 mi SSW 18.4 mph 24.2 mph N/A   Clear
7:15 PM 40.1 °F 30.5 °F 7.9 °F 27% 30.08 in 10.0 mi SSW 20.7 mph - N/A   Clear
7:35 PM 39.6 °F 30.0 °F 10.0 °F 30% 30.07 in 10.0 mi SSW 19.6 mph 26.5 mph N/A   Clear
7:55 PM 39.9 °F 30.2 °F 13.8 °F 35% 30.07 in 10.0 mi SW 20.7 mph 28.8 mph N/A   Clear
8:15 PM 40.1 °F 30.7 °F 15.8 °F 37% 30.08 in 10.0 mi SW 19.6 mph 27.6 mph N/A   Clear
8:35 PM 39.9 °F 29.5 °F 16.3 °F 38% 30.07 in 10.0 mi SW 24.2 mph 33.4 mph N/A   Clear
8:55 PM 39.2 °F 29.8 °F 16.7 °F 40% 30.08 in 10.0 mi SW 18.4 mph 25.3 mph N/A   Clear
9:15 PM 38.5 °F 28.6 °F 16.7 °F 41% 30.07 in 10.0 mi SW 19.6 mph 24.2 mph N/A   Clear
9:35 PM 38.3 °F 29.7 °F 16.5 °F 41% 30.09 in 10.0 mi SW 15.0 mph 25.3 mph N/A   Clear
9:55 PM 38.1 °F 29.5 °F 16.0 °F 41% 30.09 in 10.0 mi WSW 15.0 mph - N/A   Clear
10:15 PM 38.3 °F 28.7 °F 17.4 °F 43% 30.10 in 10.0 mi WSW 18.4 mph 21.9 mph N/A   Clear
10:35 PM 36.9 °F 27.8 °F 18.1 °F 47% 30.10 in 10.0 mi WSW 15.0 mph - N/A   Clear
10:55 PM 36.7 °F 26.9 °F 17.2 °F 45% 30.10 in 10.0 mi SW 17.3 mph - N/A   Clear
11:15 PM 36.0 °F 28.5 °F 15.4 °F 43% 30.12 in 10.0 mi WSW 10.4 mph - N/A   Clear
11:35 PM 34.9 °F 27.1 °F 14.9 °F 44% 30.13 in 10.0 mi SW 10.4 mph - N/A   Clear
11:55 PM 35.1 °F 27.4 °F 13.8 °F 42% 30.13 in 10.0 mi WSW 10.4 mph - N/A   Clear